Regional Weather Roundup
Issued by NWS

Home | Current Version | Previous Version | Text Only | Print | Product List | Glossary On
Versions: 1 2 3 4 5 6 7 8 9 10 11 12 13 14 15 16 17 18 19 20 21 22 23 24 25 26 27 28
000
ASUS44 KBMX 241310
RWRAL

ALABAMA REGIONAL WEATHER ROUNDUP
NATIONAL WEATHER SERVICE BIRMINGHAM AL
800 AM CDT FRI OCT 24 2014

NOTE: "FAIR" INDICATES FEW OR NO CLOUDS BELOW 12,000 FEET
WITH NO SIGNIFICANT WEATHER AND/OR OBSTRUCTIONS TO VISIBILITY.

THE REMARK "TC" DENOTES TEMPERATURE IN DEGREES CELSIUS.

ALZ001>011-014-016>018-020-241400-
NORTH ALABAMA

CITY           SKY/WX    TMP DP  RH WIND       PRES   REMARKS
MUSCLE SHOALS  SUNNY     47  43  86 CALM      30.14R
HUNTSVILLE     PTSUNNY   50  45  83 N5        30.11S
DECATUR        MOSUNNY   48  45  89 N3        30.12S
HALEYVILLE     FAIR      45  45 100 CALM      30.14R
GADSDEN        CLOUDY    50  46  87 N6        30.09S
$$

ALZ012-013-022-023-030>036-040>044-241400-
WEST CENTRAL ALABAMA

CITY           SKY/WX    TMP DP  RH WIND       PRES   REMARKS
TUSCALOOSA     PTSUNNY   52  49  89 CALM      30.11R
$$

ALZ015-024>027-033>036-040>044-241400-
CENTRAL ALABAMA

CITY           SKY/WX    TMP DP  RH WIND       PRES   REMARKS
BIRMINGHAM     NOT AVBL
MONTGOMERY     MOSUNNY   51  48  89 CALM      30.09R
SHELBY CO ARPT CLOUDY    54  49  83 CALM      30.10R
MAXWELL AFB    PTSUNNY   51  51 100 VRB1      30.08R
GREENVILLE     NOT AVBL
$$

ALZ019-021-028-029-037-038-045>048-241400-
EAST CENTRAL ALABAMA

CITY           SKY/WX    TMP DP  RH WIND       PRES   REMARKS
ANNISTON       PTSUNNY   51  47  86 E5        30.07F
ALEXANDER CITY PTSUNNY   50  48  94 SW5       30.07F
AUBURN         PTSUNNY   50  43  76 N6        30.10R
$$

ALZ051>064-241400-
SOUTHWEST ALABAMA

CITY           SKY/WX    TMP DP  RH WIND       PRES   REMARKS
MOBILE         MOSUNNY   54  49  83 N5        30.09S
BROOKLEY FIELD SUNNY     54  50  86 NW5       30.10S
EVERGREEN      SUNNY     50  47  89 CALM      30.08S
$$

ALZ049-050-065>069-241400-
SOUTHEAST ALABAMA

CITY           SKY/WX    TMP DP  RH WIND       PRES   REMARKS
DOTHAN         SUNNY     52  47  83 N5        30.10R
OZARK          MOSUNNY   52  46  82 NW5       30.07R
TROY           MOSUNNY   46  44  93 CALM      30.08S
EUFAULA        FAIR      50  47  89 CALM      30.07S
$$



USA.gov is the U.S. government's official web portal to all federal, state and local government web resources and services.